Weather Roundup
Issued by NWS

Home | Current Version | Previous Version | Text Only | Print | Product List | Glossary On
Versions: 1 2 3 4 5 6 7 8 9 10 11 12 13 14 15 16 17 18 19 20 21 22 23 24 25 26 27 28 29 30 31 32 33 34 35 36 37 38 39 40 41 42 43 44 45 46 47 48 49 50
263
NZUS93 KARX 131759
HRRWXR

CURRENT HOURLY OBSERVATIONS ACROSS
MUCH OF THE UPPER MISSISSIPPI VALLEY
NATIONAL WEATHER SERVICE LA CROSSE WI
1200 PM CST SAT FEB 13 2016


...SOUTHEAST MINNESOTA...


CITY           SKY/WX    TMP DP  RH WIND       PRES   REMARKS
ROCHESTER      SUNNY      0  -9  65 CALM      30.55F
ROCHESTER/MAYO FAIR       6  -8  51 W5        30.57F WCI  -3
WINONA         SUNNY     10  -8  44 CALM      30.64F
AUSTIN         CLOUDY     1  -9  60 S5        30.56F WCI  -8
ALBERT LEA     CLOUDY     3  -8  60 S3        30.54F
DODGE CENTER   SUNNY      9  -9  43 SE3       30.55F
PRESTON        SUNNY      1 -13  53 CALM      30.56F
OWATONNA       SUNNY      5  -9  51 CALM      30.56F
FARIBAULT      SUNNY      3  -9  55 S2        30.58F
$$

...ELSEWHERE IN MINNESOTA...


CITY           SKY/WX    TMP DP  RH WIND       PRES   REMARKS
MINNEAPOLIS    SUNNY      6 -10  47 CALM      30.60F
INTNL FALLS    SUNNY     -1 -16  48 VRB3      30.50F
DULUTH         SUNNY      1 -14  49 W7        30.47F WCI -12
RED WING       NOT AVBL
REDWOOD FALLS  CLOUDY     3  -4  72 SE14      30.54F WCI -15
MANKATO        SUNNY      3  -8  60 S8        30.57F WCI -10
WORTHINGTON    CLOUDY     3  -6  66 S12       30.47F WCI -13
FAIRMONT       CLOUDY     3  -6  66 S10       30.53F WCI -12
$$

...SOUTHWEST WISCONSIN...


CITY           SKY/WX    TMP DP  RH WIND       PRES   REMARKS
LA CROSSE      SUNNY      6 -11  45 NW5       30.63F WCI  -3
PRAIRIE DU CHI SUNNY      6 -13  41 W3        30.63F
BOSCOBEL       SUNNY     10 -12  36 CALM      30.62F
LONE ROCK      NOT AVBL
PLATTEVILLE    SUNNY      5  -8  54 W5        30.59F WCI  -4
FORT MC COY    SUNNY      5 -11  47 W8        30.61F WCI  -8
VIROQUA        FAIR       3 -12  48 CALM      30.55F
WIS DELLS      SUNNY      4 -12  47 W8        30.57F WCI  -9
$$

...ELSEWHERE IN WISCONSIN...


CITY           SKY/WX    TMP DP  RH WIND       PRES   REMARKS
MILWAUKEE      MOSUNNY   10  -9  42 NW13      30.56F WCI  -5
MADISON        SUNNY      5 -10  50 NW7       30.58F WCI  -7
GREEN BAY      SUNNY      6  -7  54 NW13      30.53F WCI -10
EAU CLAIRE     NOT AVBL
BLACK RVR FLS  FAIR       5 -14  41 SW5       30.61F WCI  -4
MEDFORD        SUNNY      1 -12  55 W5        30.49F WCI  -9
WAUSAU         SUNNY      4  -9  55 NW7       30.50F WCI  -8
WIS RAPIDS     SUNNY      5 -11  47 N7        30.55F WCI  -7
MARSHFIELD     SUNNY      1 -12  54 W8        30.51F WCI -13
RICE LAKE      SUNNY     -1 -15  53 SW3       30.60F
$$

...NORTHEAST IOWA...


CITY           SKY/WX    TMP DP  RH WIND       PRES   REMARKS
WATERLOO       CLOUDY     5  -7  57 N3        30.61F
DUBUQUE        SUNNY      8  -9  45 NW7       30.58F WCI  -3
DECORAH        SUNNY      3 -11  51 VRB5      30.58F WCI  -6
MASON CITY     SUNNY      2  -6  69 SE7       30.58F WCI -11
CHARLES CITY   SUNNY      3 -13  47 CALM      30.60F
OELWEIN        SUNNY      1 -11  55 CALM      30.61S
$$

...ELSEWHERE IN IOWA...


CITY           SKY/WX    TMP DP  RH WIND       PRES   REMARKS
DES MOINES     CLOUDY    10  -4  53 S8        30.59F WCI  -2
IOWA CITY      SUNNY     14  -7  38 CALM      30.64F
FORT DODGE     CLOUDY     5  -4  66 E8        30.57F WCI  -8
MARSHALLTOWN   PTSUNNY    8  -2  63 VRB3      30.59F
CEDAR RAPIDS   SUNNY     11  -5  48 NW3       30.60F
$$

...NORTHERN ILLINOIS...


CITY           SKY/WX    TMP DP  RH WIND       PRES   REMARKS
CHICAGO-OHARE  MOSUNNY   13  -7  40 NW9       30.58F WCI   1
CHICAGO-MIDWAY MOSUNNY   14  -9  35 VRB7G17   30.59F WCI   4
MOLINE         SUNNY     15  -9  33 VRB7      30.62F WCI   5
ROCKFORD       MOSUNNY   13  -6  42 NW8       30.62F WCI   2
PEORIA         SUNNY     17  -7  34 NW6       30.62F WCI   9
$$

NOTE: "FAIR" INDICATES FEW OR NO CLOUDS BELOW 12,000 FEET WITH NO
SIGNIFICANT WEATHER AND/OR OBSTRUCTIONS TO VISIBILITY. WIND
SPEEDS ARE IN MILES-PER-HOUR.




USA.gov is the U.S. government's official web portal to all federal, state and local government web resources and services.